contact:dominique.lefevre@mio.osupytheas.fr, maurice.libes@osupytheas.fr, didier.mallarino@osupytheas.fr
Project:EMSO http://www.emso-fr.org/EMSO-France
Depth: 2436.0 m
Title:EMSO Ligure Ouest : Data MII capteur AQUADOPP
Date,Latitude,Longitude,X_East,Y_North,Z_Up,Amplitude_X,Amplitude_Y,Amplitude_Z,Batterie,SoundSpeed,Heading,Pitch,Roll,Pressure,TIS,Speed,Direction
, degrees North, degrees East, m.s-1, m.s-1,m.s-1, 1, 1, 1, Volt, m.s-1, degree, degree, degree, dbar, degree_C, m.s-1, degree
2021-01-05T00:04:03,42.805,6.029,-0.029,-0.057,-0.018,105.0,106.0,102.0,13.4,1505.2,322.6,-0.7,1.8,2470.458,13.3,0.063,207.0
2021-01-05T00:07:03,42.805,6.029,-0.019,-0.061,0.002,106.0,105.0,103.0,13.4,1505.3,323.8,-0.8,1.8,2470.408,13.31,0.063,197.3
2021-01-05T00:10:03,42.805,6.029,-0.017,-0.074,0.01,105.0,106.0,102.0,13.3,1505.3,324.6,-0.7,1.8,2470.402,13.31,0.075,192.9
2021-01-05T00:13:03,42.805,6.029,-0.036,-0.06,-0.001,106.0,105.0,102.0,13.4,1505.3,328.0,-0.7,1.9,2470.393,13.32,0.069,211.0
2021-01-05T00:16:03,42.805,6.029,-0.01,-0.058,0.01,105.0,105.0,102.0,13.4,1505.3,323.2,-0.7,1.8,2470.409,13.32,0.058,189.8
2021-01-05T00:19:03,42.805,6.029,-0.028,-0.06,-0.01,106.0,105.0,102.0,13.3,1505.3,325.1,-0.7,1.8,2470.405,13.32,0.066,205.0
2021-01-05T00:22:03,42.805,6.029,-0.037,-0.049,-0.005,105.0,105.0,102.0,13.4,1505.3,325.2,-0.7,1.8,2470.39,13.32,0.061,217.1
2021-01-05T00:25:03,42.805,6.029,-0.011,-0.05,-0.009,105.0,106.0,102.0,13.3,1505.3,328.2,-0.7,1.8,2470.426,13.32,0.051,192.4
2021-01-05T00:28:03,42.805,6.029,-0.025,-0.056,-0.002,105.0,105.0,102.0,13.4,1505.3,324.3,-0.7,1.8,2470.426,13.32,0.061,204.1
2021-01-05T00:31:03,42.805,6.029,-0.025,-0.07,-0.027,105.0,105.0,102.0,13.4,1505.3,327.0,-0.7,1.8,2470.414,13.32,0.074,199.6
2021-01-05T00:34:03,42.805,6.029,-0.038,-0.034,0.001,105.0,106.0,102.0,13.4,1505.3,325.2,-0.7,1.8,2470.424,13.32,0.05,228.2
2021-01-05T00:37:03,42.805,6.029,-0.029,-0.044,0.006,106.0,106.0,102.0,13.4,1505.3,326.6,-0.7,1.8,2470.38,13.32,0.052,213.4
2021-01-05T00:40:03,42.805,6.029,-0.016,-0.051,-0.04,106.0,105.0,102.0,13.4,1505.3,326.8,-0.7,1.8,2470.389,13.32,0.053,197.4
2021-01-05T00:43:03,42.805,6.029,-0.013,-0.084,-0.021,105.0,105.0,102.0,13.4,1505.3,324.3,-0.7,1.8,2470.4,13.32,0.084,188.8
2021-01-05T00:46:03,42.805,6.029,-0.002,-0.061,0.0,105.0,106.0,102.0,13.4,1505.3,328.0,-0.7,1.8,2470.373,13.32,0.061,181.9
2021-01-05T00:49:03,42.805,6.029,-0.035,-0.074,0.003,106.0,105.0,102.0,13.4,1505.3,323.0,-0.7,1.8,2470.406,13.32,0.081,205.3
2021-01-05T00:52:03,42.805,6.029,-0.023,-0.052,0.006,106.0,105.0,102.0,13.4,1505.3,324.2,-0.7,1.8,2470.384,13.32,0.056,203.9
2021-01-05T00:55:03,42.805,6.029,-0.015,-0.067,-0.008,105.0,103.0,103.0,13.4,1505.3,324.6,-0.7,1.8,2470.368,13.32,0.068,192.6
2021-01-05T00:58:03,42.805,6.029,-0.028,-0.055,-0.007,106.0,106.0,102.0,13.4,1505.3,326.4,-0.7,1.8,2470.354,13.32,0.061,207.0
2021-01-05T01:04:03,42.805,6.029,0.01,-0.082,-0.007,107.0,107.0,103.0,13.4,1505.2,324.5,-0.7,1.9,2470.43,13.3,0.082,173.0
2021-01-05T01:07:03,42.805,6.029,-0.041,-0.056,0.004,106.0,105.0,103.0,13.4,1505.3,324.8,-0.7,1.8,2470.412,13.31,0.069,216.2
2021-01-05T01:10:03,42.805,6.029,-0.022,-0.053,-0.013,106.0,105.0,102.0,13.4,1505.3,327.3,-0.7,1.8,2470.412,13.31,0.057,202.5
2021-01-05T01:13:03,42.805,6.029,-0.021,-0.049,0.005,106.0,106.0,102.0,13.4,1505.3,324.6,-0.7,1.8,2470.373,13.32,0.053,203.2
2021-01-05T01:16:03,42.805,6.029,-0.027,-0.057,-0.016,107.0,106.0,102.0,13.4,1505.3,325.5,-0.6,1.8,2470.407,13.32,0.063,205.3
2021-01-05T01:19:03,42.805,6.029,-0.025,-0.08,0.002,105.0,105.0,102.0,13.4,1505.3,324.3,-0.7,1.8,2470.37,13.32,0.083,197.4
2021-01-05T01:22:03,42.805,6.029,-0.042,-0.048,-0.033,107.0,106.0,102.0,13.4,1505.3,327.8,-0.7,1.8,2470.387,13.32,0.063,221.2
2021-01-05T01:25:03,42.805,6.029,-0.002,-0.077,-0.016,106.0,105.0,102.0,13.4,1505.3,324.4,-0.7,1.8,2470.365,13.32,0.077,181.5
2021-01-05T01:28:03,42.805,6.029,-0.022,-0.059,-0.04,105.0,106.0,102.0,13.4,1505.3,324.0,-0.7,1.9,2470.378,13.32,0.062,200.4
2021-01-05T01:31:03,42.805,6.029,-0.029,-0.083,-0.027,106.0,105.0,103.0,13.4,1505.3,324.7,-0.7,1.8,2470.415,13.32,0.087,199.3
2021-01-05T01:34:03,42.805,6.029,-0.039,-0.064,-0.02,105.0,105.0,102.0,13.4,1505.3,324.3,-0.7,1.8,2470.383,13.32,0.074,211.4
2021-01-05T01:37:03,42.805,6.029,-0.027,-0.06,-0.013,106.0,106.0,103.0,13.4,1505.3,323.9,-0.7,1.8,2470.37,13.32,0.065,204.2
2021-01-05T01:40:03,42.805,6.029,0.004,-0.067,-0.016,106.0,106.0,101.0,13.4,1505.3,325.9,-0.7,1.8,2470.376,13.32,0.067,176.6
2021-01-05T01:43:03,42.805,6.029,-0.006,-0.049,-0.009,105.0,106.0,104.0,13.4,1505.3,325.5,-0.7,1.8,2470.392,13.32,0.049,187.0
2021-01-05T01:46:03,42.805,6.029,-0.012,-0.06,-0.009,106.0,104.0,103.0,13.4,1505.3,324.5,-0.7,1.8,2470.366,13.32,0.061,191.3
2021-01-05T01:49:03,42.805,6.029,-0.041,-0.069,-0.05,105.0,106.0,103.0,13.4,1505.3,327.3,-0.7,1.8,2470.381,13.32,0.08,210.7
2021-01-05T01:52:03,42.805,6.029,-0.014,-0.057,-0.013,107.0,105.0,101.0,13.4,1505.3,328.4,-0.7,1.8,2470.342,13.32,0.058,193.8
2021-01-05T01:55:03,42.805,6.029,-0.005,-0.043,0.0,106.0,107.0,104.0,13.4,1505.3,323.7,-0.7,1.8,2470.359,13.32,0.043,186.6
2021-01-05T01:58:03,42.805,6.029,-0.023,-0.052,0.005,106.0,106.0,102.0,13.4,1505.3,323.0,-0.7,1.8,2470.377,13.32,0.056,203.9
2021-01-05T02:04:03,42.805,6.029,-0.012,-0.06,-0.036,106.0,106.0,103.0,13.3,1505.2,324.6,-0.8,1.8,2470.364,13.3,0.061,191.3
2021-01-05T02:07:03,42.805,6.029,-0.018,-0.072,-0.034,106.0,105.0,102.0,13.4,1505.3,326.3,-0.7,1.8,2470.429,13.31,0.074,194.0
2021-01-05T02:10:03,42.805,6.029,-0.02,-0.049,-0.019,105.0,106.0,103.0,13.4,1505.3,326.6,-0.7,1.8,2470.418,13.31,0.052,202.2
2021-01-05T02:13:03,42.805,6.029,-0.002,-0.055,-0.015,105.0,107.0,103.0,13.4,1505.3,323.8,-0.7,1.8,2470.402,13.31,0.055,182.1
2021-01-05T02:16:03,42.805,6.029,-0.016,-0.044,-0.03,107.0,106.0,103.0,13.4,1505.3,323.4,-0.7,1.8,2470.374,13.32,0.046,200.0
2021-01-05T02:19:03,42.805,6.029,-0.046,-0.034,-0.016,106.0,107.0,102.0,13.4,1505.3,327.6,-0.7,1.8,2470.368,13.32,0.057,233.5
2021-01-05T02:22:03,42.805,6.029,-0.024,-0.045,-0.023,106.0,106.0,103.0,13.4,1505.3,326.4,-0.7,1.8,2470.393,13.32,0.051,208.1
2021-01-05T02:25:03,42.805,6.029,-0.012,-0.054,-0.02,106.0,106.0,103.0,13.4,1505.3,323.8,-0.7,1.8,2470.322,13.32,0.055,192.5
2021-01-05T02:28:03,42.805,6.029,-0.001,-0.066,-0.018,107.0,106.0,102.0,13.3,1505.3,327.0,-0.7,1.8,2470.335,13.32,0.066,180.9
2021-01-05T02:31:03,42.805,6.029,-0.036,-0.044,-0.056,106.0,106.0,102.0,13.4,1505.3,327.8,-0.7,1.8,2470.353,13.32,0.056,219.3
2021-01-05T02:34:03,42.805,6.029,-0.017,-0.078,-0.018,107.0,107.0,101.0,13.4,1505.3,323.3,-0.7,1.8,2470.359,13.32,0.079,192.3
2021-01-05T02:37:03,42.805,6.029,-0.026,-0.056,-0.013,106.0,106.0,104.0,13.4,1505.3,327.3,-0.7,1.8,2470.365,13.32,0.061,204.9
2021-01-05T02:40:03,42.805,6.029,-0.023,-0.065,-0.003,107.0,106.0,103.0,13.4,1505.3,328.1,-0.7,1.8,2470.298,13.32,0.068,199.5
2021-01-05T02:43:03,42.805,6.029,-0.033,-0.064,-0.059,106.0,106.0,102.0,13.4,1505.3,324.7,-0.7,1.8,2470.362,13.32,0.072,207.3
2021-01-05T02:46:03,42.805,6.029,-0.007,-0.062,-0.003,106.0,106.0,103.0,13.4,1505.3,324.8,-0.8,1.8,2470.355,13.32,0.062,186.4
2021-01-05T02:49:03,42.805,6.029,-0.013,-0.055,-0.025,107.0,106.0,103.0,13.4,1505.3,324.8,-0.7,1.8,2470.334,13.32,0.056,193.3
2021-01-05T02:52:03,42.805,6.029,-0.018,-0.055,-0.012,105.0,106.0,104.0,13.4,1505.3,326.6,-0.7,1.8,2470.355,13.32,0.057,198.1
2021-01-05T02:55:03,42.805,6.029,-0.017,-0.05,0.0,106.0,106.0,102.0,13.4,1505.3,322.8,-0.7,1.8,2470.347,13.32,0.052,198.8
2021-01-05T02:58:03,42.805,6.029,-0.024,-0.052,-0.036,106.0,106.0,103.0,13.4,1505.3,325.4,-0.7,1.8,2470.357,13.32,0.057,204.8
2021-01-05T03:04:03,42.805,6.029,-0.043,-0.064,0.002,107.0,107.0,103.0,13.4,1505.2,326.7,-0.7,1.8,2470.372,13.3,0.077,213.9
2021-01-05T03:07:03,42.805,6.029,-0.014,-0.047,-0.048,107.0,106.0,103.0,13.3,1505.3,326.0,-0.7,1.9,2470.377,13.31,0.049,196.6
2021-01-05T03:10:03,42.805,6.029,-0.028,-0.068,-0.02,106.0,105.0,103.0,13.4,1505.3,323.8,-0.7,1.9,2470.36,13.31,0.073,202.4
2021-01-05T03:13:03,42.805,6.029,-0.03,-0.058,-0.023,107.0,106.0,102.0,13.4,1505.3,325.8,-0.7,1.8,2470.361,13.31,0.065,207.4
2021-01-05T03:16:03,42.805,6.029,-0.032,-0.078,0.006,107.0,107.0,103.0,13.4,1505.3,324.5,-0.7,1.8,2470.322,13.32,0.084,202.3
2021-01-05T03:19:03,42.805,6.029,-0.023,-0.052,-0.021,107.0,106.0,102.0,13.4,1505.3,324.7,-0.7,1.8,2470.336,13.32,0.056,203.9
2021-01-05T03:22:03,42.805,6.029,-0.026,-0.064,-0.035,107.0,107.0,103.0,13.4,1505.3,325.9,-0.7,1.8,2470.354,13.32,0.069,202.1
2021-01-05T03:25:03,42.805,6.029,-0.018,-0.072,-0.052,107.0,106.0,103.0,13.4,1505.3,325.9,-0.7,1.8,2470.348,13.32,0.074,194.0
2021-01-05T03:28:03,42.805,6.029,-0.019,-0.046,-0.034,106.0,106.0,103.0,13.3,1505.3,324.5,-0.7,1.8,2470.308,13.32,0.049,202.4
2021-01-05T03:31:03,42.805,6.029,-0.037,-0.054,-0.005,106.0,106.0,102.0,13.4,1505.3,325.4,-0.7,1.8,2470.306,13.32,0.065,214.4
2021-01-05T03:34:03,42.805,6.029,-0.026,-0.07,0.046,106.0,106.0,103.0,13.4,1505.3,322.8,-0.7,1.8,2470.375,13.32,0.074,200.4
2021-01-05T03:37:03,42.805,6.029,-0.03,-0.057,-0.004,106.0,106.0,103.0,13.4,1505.3,326.6,-0.7,1.8,2470.303,13.32,0.064,207.8
2021-01-05T03:40:03,42.805,6.029,-0.019,-0.071,0.002,107.0,107.0,103.0,13.4,1505.3,327.3,-0.7,1.8,2470.323,13.32,0.073,195.0
2021-01-05T03:43:03,42.805,6.029,-0.025,-0.068,0.0,107.0,106.0,102.0,13.4,1505.3,324.3,-0.7,1.8,2470.302,13.32,0.072,200.2
2021-01-05T03:46:03,42.805,6.029,-0.036,-0.054,-0.006,106.0,106.0,103.0,13.4,1505.3,325.1,-0.6,1.9,2470.356,13.32,0.064,213.7
2021-01-05T03:49:03,42.805,6.029,-0.022,-0.06,0.02,107.0,107.0,103.0,13.4,1505.3,323.7,-0.7,1.8,2470.286,13.32,0.063,200.1
2021-01-05T03:52:03,42.805,6.029,-0.021,-0.045,0.024,107.0,106.0,102.0,13.3,1505.3,326.0,-0.7,1.9,2470.295,13.32,0.049,205.0
2021-01-05T03:55:03,42.805,6.029,-0.05,-0.051,-0.005,108.0,107.0,103.0,13.4,1505.3,323.6,-0.7,1.8,2470.278,13.32,0.071,224.4
2021-01-05T03:58:03,42.805,6.029,-0.017,-0.07,-0.023,106.0,106.0,103.0,13.4,1505.3,322.8,-0.7,1.8,2470.277,13.32,0.072,193.7
2021-01-05T04:04:03,42.805,6.029,-0.037,-0.046,0.012,107.0,106.0,103.0,13.4,1505.2,323.1,-0.7,1.8,2470.35,13.3,0.059,218.8
2021-01-05T04:07:03,42.805,6.029,-0.054,-0.061,-0.003,108.0,107.0,103.0,13.4,1505.3,326.6,-0.7,1.8,2470.346,13.31,0.081,221.5
2021-01-05T04:10:03,42.805,6.029,-0.029,-0.077,0.026,107.0,107.0,104.0,13.3,1505.3,327.7,-0.7,1.8,2470.368,13.31,0.082,200.6
2021-01-05T04:13:03,42.805,6.029,-0.043,-0.055,0.003,108.0,106.0,102.0,13.4,1505.3,323.8,-0.7,1.8,2470.317,13.32,0.069,218.0
2021-01-05T04:16:03,42.805,6.029,-0.033,-0.071,-0.026,107.0,107.0,103.0,13.4,1505.3,326.5,-0.7,1.8,2470.314,13.32,0.078,204.9
2021-01-05T04:19:03,42.805,6.029,-0.028,-0.038,-0.006,106.0,106.0,103.0,13.4,1505.3,326.5,-0.7,1.8,2470.328,13.32,0.047,216.4
2021-01-05T04:22:03,42.805,6.029,-0.034,-0.056,0.004,107.0,107.0,103.0,13.4,1505.3,326.9,-0.7,1.8,2470.336,13.32,0.065,211.3
2021-01-05T04:28:03,42.805,6.029,-0.028,-0.05,0.0,108.0,105.0,102.0,13.4,1505.2,323.0,-0.7,1.8,2470.341,13.3,0.057,209.3
2021-01-05T04:31:03,42.805,6.029,-0.021,-0.046,-0.027,107.0,106.0,102.0,13.4,1505.3,323.6,-0.7,1.8,2470.291,13.31,0.05,204.5
2021-01-05T04:34:03,42.805,6.029,-0.048,-0.083,-0.042,107.0,106.0,103.0,13.4,1505.3,326.7,-0.7,1.8,2470.336,13.31,0.095,210.0
2021-01-05T04:37:03,42.805,6.029,-0.039,-0.054,0.012,107.0,106.0,103.0,13.4,1505.3,326.3,-0.7,1.8,2470.332,13.32,0.066,215.8
2021-01-05T04:40:03,42.805,6.029,-0.033,-0.063,-0.004,108.0,107.0,103.0,13.4,1505.3,324.3,-0.7,1.8,2470.352,13.32,0.071,207.6
2021-01-05T04:43:03,42.805,6.029,-0.014,-0.055,-0.022,107.0,107.0,103.0,13.4,1505.3,327.3,-0.7,1.9,2470.334,13.32,0.056,194.3
2021-01-05T04:46:03,42.805,6.029,-0.05,-0.04,-0.018,107.0,107.0,104.0,13.4,1505.3,325.1,-0.7,1.9,2470.28,13.32,0.064,231.3
2021-01-05T04:49:03,42.805,6.029,-0.058,-0.063,-0.021,107.0,106.0,102.0,13.4,1505.3,324.7,-0.7,1.8,2470.331,13.32,0.085,222.6
2021-01-05T04:52:03,42.805,6.029,-0.042,-0.078,-0.001,108.0,106.0,104.0,13.4,1505.3,326.6,-0.7,1.8,2470.342,13.32,0.088,208.3
2021-01-05T04:55:03,42.805,6.029,-0.057,-0.038,-0.036,106.0,106.0,103.0,13.4,1505.3,326.0,-0.7,1.8,2470.325,13.32,0.068,236.3
2021-01-05T04:58:03,42.805,6.029,-0.041,-0.061,-0.007,106.0,106.0,103.0,13.4,1505.3,325.3,-0.7,1.8,2470.306,13.32,0.073,213.9
2021-01-05T05:04:03,42.805,6.029,-0.027,-0.063,-0.004,107.0,107.0,103.0,13.3,1505.2,324.5,-0.7,1.8,2470.351,13.3,0.068,203.2
2021-01-05T05:07:03,42.805,6.029,-0.04,-0.047,-0.026,107.0,107.0,103.0,13.4,1505.3,325.7,-0.7,1.8,2470.368,13.31,0.061,220.4
2021-01-05T05:10:03,42.805,6.029,-0.065,-0.048,-0.036,107.0,106.0,103.0,13.4,1505.3,323.6,-0.7,1.8,2470.311,13.31,0.08,233.6
2021-01-05T05:13:03,42.805,6.029,-0.051,-0.043,0.004,108.0,107.0,103.0,13.4,1505.3,327.9,-0.6,1.8,2470.372,13.32,0.066,229.9
2021-01-05T05:16:03,42.805,6.029,-0.036,-0.039,0.002,107.0,108.0,103.0,13.3,1505.3,324.7,-0.7,1.8,2470.347,13.32,0.053,222.7
2021-01-05T05:19:03,42.805,6.029,-0.027,-0.04,-0.02,107.0,107.0,103.0,13.4,1505.3,323.9,-0.7,1.8,2470.337,13.32,0.048,214.0
2021-01-05T05:22:03,42.805,6.029,-0.053,-0.05,0.0,107.0,107.0,104.0,13.3,1505.3,326.9,-0.7,1.8,2470.322,13.32,0.072,226.7
2021-01-05T05:25:03,42.805,6.029,-0.06,-0.061,-0.015,107.0,107.0,103.0,13.4,1505.3,323.2,-0.7,1.8,2470.299,13.32,0.085,224.5
2021-01-05T05:28:03,42.805,6.029,-0.059,-0.053,-0.008,107.0,106.0,102.0,13.4,1505.3,325.4,-0.7,1.8,2470.365,13.32,0.079,228.1
2021-01-05T05:31:03,42.805,6.029,-0.037,-0.024,-0.022,106.0,107.0,102.0,13.4,1505.3,326.3,-0.7,1.8,2470.288,13.32,0.044,237.0
2021-01-05T05:34:03,42.805,6.029,-0.039,-0.035,0.006,107.0,107.0,103.0,13.4,1505.3,323.7,-0.7,1.8,2470.32,13.32,0.052,228.1
2021-01-05T05:37:03,42.805,6.029,-0.058,-0.061,-0.007,108.0,107.0,102.0,13.3,1505.3,325.5,-0.7,1.8,2470.342,13.32,0.084,223.6
2021-01-05T05:40:03,42.805,6.029,-0.046,-0.034,-0.003,107.0,107.0,103.0,13.4,1505.3,324.6,-0.7,1.8,2470.316,13.32,0.057,233.5
2021-01-05T05:43:03,42.805,6.029,-0.066,-0.042,0.008,107.0,106.0,103.0,13.4,1505.3,323.2,-0.7,1.8,2470.343,13.32,0.078,237.5
2021-01-05T05:46:03,42.805,6.029,-0.058,-0.04,0.0,106.0,106.0,103.0,13.4,1505.3,322.6,-0.7,1.8,2470.299,13.32,0.07,235.4
2021-01-05T05:49:03,42.805,6.029,-0.043,-0.054,-0.017,108.0,107.0,103.0,13.3,1505.3,324.9,-0.7,1.8,2470.312,13.32,0.069,218.5
2021-01-05T05:52:03,42.805,6.029,-0.069,-0.037,-0.017,106.0,107.0,103.0,13.4,1505.3,327.9,-0.7,1.8,2470.293,13.32,0.078,241.8
2021-01-05T05:55:03,42.805,6.029,-0.075,-0.04,-0.052,107.0,107.0,104.0,13.4,1505.3,328.1,-0.7,1.8,2470.341,13.32,0.084,241.9
2021-01-05T05:58:03,42.805,6.029,-0.065,-0.052,0.003,109.0,107.0,104.0,13.3,1505.3,328.0,-0.7,1.8,2470.309,13.32,0.083,231.3
2021-01-05T06:04:03,42.805,6.029,-0.053,-0.029,-0.012,108.0,108.0,103.0,13.4,1505.2,327.2,-0.8,1.8,2470.339,13.3,0.06,241.3
2021-01-05T06:07:03,42.805,6.029,-0.051,-0.045,0.013,108.0,107.0,104.0,13.4,1505.3,324.9,-0.8,1.9,2470.37,13.31,0.068,228.6
2021-01-05T06:10:03,42.805,6.029,-0.066,-0.042,-0.017,108.0,107.0,103.0,13.4,1505.3,322.8,-0.7,1.8,2470.346,13.31,0.078,237.5
2021-01-05T06:13:03,42.805,6.029,-0.088,-0.022,-0.033,107.0,107.0,104.0,13.3,1505.3,328.3,-0.7,1.8,2470.332,13.32,0.09,256.0
2021-01-05T06:16:03,42.805,6.029,-0.06,-0.046,0.014,108.0,106.0,103.0,13.4,1505.3,328.1,-0.6,1.9,2470.305,13.32,0.075,232.5
2021-01-05T06:19:03,42.805,6.029,-0.075,-0.042,0.001,107.0,107.0,103.0,13.4,1505.3,325.1,-0.7,1.8,2470.324,13.32,0.085,240.7
2021-01-05T06:22:03,42.805,6.029,-0.054,-0.056,0.019,107.0,108.0,104.0,13.4,1505.3,323.5,-0.7,1.8,2470.318,13.32,0.077,224.0
2021-01-05T06:25:03,42.805,6.029,-0.057,-0.002,0.013,108.0,108.0,104.0,13.4,1505.3,326.8,-0.7,1.8,2470.346,13.32,0.057,268.0
2021-01-05T06:28:03,42.805,6.029,-0.071,-0.037,-0.034,108.0,107.0,104.0,13.4,1505.3,326.2,-0.7,1.8,2470.343,13.32,0.08,242.5
2021-01-05T06:31:03,42.805,6.029,-0.042,-0.025,0.011,108.0,107.0,104.0,13.4,1505.3,326.9,-0.7,1.8,2470.31,13.32,0.048,239.2
2021-01-05T06:34:03,42.805,6.029,-0.053,-0.04,-0.017,107.0,107.0,103.0,13.4,1505.3,324.3,-0.7,1.8,2470.336,13.32,0.066,233.0
2021-01-05T06:37:03,42.805,6.029,-0.042,-0.025,-0.016,108.0,106.0,104.0,13.3,1505.3,325.4,-0.7,1.9,2470.334,13.32,0.048,239.2
2021-01-05T06:40:03,42.805,6.029,-0.064,-0.035,0.0,108.0,108.0,105.0,13.4,1505.3,328.2,-0.7,1.9,2470.317,13.32,0.072,241.3
2021-01-05T06:43:03,42.805,6.029,-0.066,-0.015,0.027,107.0,108.0,104.0,13.4,1505.3,327.2,-0.7,1.8,2470.318,13.32,0.067,257.2
2021-01-05T06:46:03,42.805,6.029,-0.061,-0.009,-0.009,107.0,108.0,104.0,13.3,1505.3,323.1,-0.7,1.9,2470.317,13.32,0.061,261.6
2021-01-05T06:49:03,42.805,6.029,-0.056,-0.014,0.002,108.0,107.0,104.0,13.3,1505.3,323.0,-0.7,1.8,2470.297,13.32,0.057,256.0
2021-01-05T06:52:03,42.805,6.029,-0.056,-0.019,-0.013,108.0,108.0,103.0,13.4,1505.3,323.6,-0.7,1.8,2470.375,13.32,0.059,251.3
2021-01-05T06:55:03,42.805,6.029,-0.049,-0.022,0.01,107.0,108.0,104.0,13.4,1505.3,323.3,-0.7,1.8,2470.361,13.32,0.053,245.8
2021-01-05T06:58:03,42.805,6.029,-0.066,-0.02,-0.007,107.0,108.0,104.0,13.4,1505.3,324.6,-0.7,1.8,2470.325,13.32,0.068,253.1
2021-01-05T07:04:03,42.805,6.029,-0.074,-0.005,-0.006,108.0,109.0,104.0,13.4,1505.2,326.7,-0.7,1.8,2470.363,13.3,0.074,266.1
2021-01-05T07:07:03,42.805,6.029,-0.069,-0.014,-0.013,107.0,109.0,104.0,13.4,1505.3,324.1,-0.7,1.8,2470.397,13.31,0.07,258.5
2021-01-05T07:10:03,42.805,6.029,-0.034,0.001,0.021,107.0,108.0,105.0,13.4,1505.3,325.1,-0.7,1.8,2470.371,13.31,0.034,271.7
2021-01-05T07:13:03,42.805,6.029,-0.069,-0.006,-0.019,108.0,108.0,104.0,13.4,1505.3,326.1,-0.7,1.8,2470.331,13.32,0.069,265.0
2021-01-05T07:16:03,42.805,6.029,-0.061,-0.013,-0.007,108.0,107.0,104.0,13.4,1505.3,323.7,-0.7,1.8,2470.368,13.32,0.062,258.0
2021-01-05T07:19:03,42.805,6.029,-0.067,-0.015,0.005,108.0,108.0,104.0,13.4,1505.3,325.2,-0.7,1.8,2470.367,13.32,0.068,257.4
2021-01-05T07:22:03,42.805,6.029,-0.093,0.012,0.0,108.0,108.0,104.0,13.3,1505.3,328.7,-0.7,1.9,2470.378,13.32,0.093,277.3
2021-01-05T07:25:03,42.805,6.029,-0.05,-0.013,0.017,109.0,107.0,104.0,13.4,1505.3,327.1,-0.7,1.8,2470.369,13.32,0.051,255.4
2021-01-05T07:28:03,42.805,6.029,-0.059,-0.031,0.007,109.0,107.0,104.0,13.3,1505.3,323.3,-0.6,1.8,2470.399,13.32,0.066,242.3
2021-01-05T07:31:03,42.805,6.029,-0.063,0.003,-0.003,109.0,109.0,104.0,13.4,1505.3,326.0,-0.7,1.8,2470.386,13.32,0.063,272.7
2021-01-05T07:34:03,42.805,6.029,-0.064,0.011,0.002,107.0,108.0,104.0,13.4,1505.3,327.6,-0.7,1.8,2470.331,13.32,0.064,279.8
2021-01-05T07:37:03,42.805,6.029,-0.062,0.005,-0.017,108.0,108.0,105.0,13.4,1505.3,323.6,-0.7,1.8,2470.309,13.32,0.062,274.6
2021-01-05T07:40:03,42.805,6.029,-0.075,-0.014,-0.026,109.0,110.0,105.0,13.3,1505.3,323.0,-0.7,1.8,2470.361,13.32,0.076,259.4
2021-01-05T07:43:03,42.805,6.029,-0.067,0.003,-0.005,109.0,109.0,104.0,13.3,1505.3,325.2,-0.7,1.8,2470.375,13.32,0.067,272.6
2021-01-05T07:46:03,42.805,6.029,-0.062,-0.018,-0.036,108.0,109.0,105.0,13.4,1505.3,323.0,-0.7,1.8,2470.35,13.32,0.064,253.8
2021-01-05T07:49:03,42.805,6.029,-0.062,-0.002,-0.002,108.0,109.0,106.0,13.4,1505.3,325.8,-0.7,1.8,2470.355,13.32,0.062,268.2
2021-01-05T07:52:03,42.805,6.029,-0.091,0.013,0.002,108.0,108.0,104.0,13.4,1505.3,328.2,-0.7,1.9,2470.344,13.32,0.091,278.1
2021-01-05T07:55:03,42.805,6.029,-0.069,0.016,-0.009,108.0,110.0,104.0,13.4,1505.3,326.4,-0.7,1.8,2470.345,13.32,0.07,283.1
2021-01-05T07:58:03,42.805,6.029,-0.056,0.009,-0.024,108.0,109.0,105.0,13.4,1505.3,326.4,-0.7,1.8,2470.363,13.32,0.056,279.1
2021-01-05T08:04:03,42.805,6.029,-0.043,0.0,0.02,107.0,110.0,103.0,13.4,1505.2,325.1,-0.7,1.8,2470.437,13.3,0.043,270.0
2021-01-05T08:07:03,42.805,6.029,-0.077,0.017,0.023,107.0,111.0,105.0,13.3,1505.3,326.3,-0.7,1.8,2470.413,13.31,0.078,282.4
2021-01-05T08:10:03,42.805,6.029,-0.099,0.0,0.001,107.0,108.0,104.0,13.4,1505.3,324.4,-0.7,1.8,2470.388,13.32,0.099,270.0
2021-01-05T08:13:03,42.805,6.029,-0.054,0.002,-0.006,108.0,108.0,105.0,13.4,1505.3,325.0,-0.7,1.8,2470.407,13.32,0.054,272.1
2021-01-05T08:16:03,42.805,6.029,-0.08,-0.003,-0.017,106.0,109.0,103.0,13.4,1505.3,327.3,-0.7,1.8,2470.409,13.32,0.08,267.9
2021-01-05T08:19:03,42.805,6.029,-0.077,0.012,0.007,108.0,109.0,104.0,13.4,1505.3,323.2,-0.7,1.8,2470.405,13.32,0.077,278.9
2021-01-05T08:22:03,42.805,6.029,-0.1,0.013,-0.018,108.0,109.0,103.0,13.4,1505.3,323.4,-0.7,1.8,2470.406,13.32,0.1,277.4
2021-01-05T08:25:03,42.805,6.029,-0.05,0.027,0.025,107.0,109.0,103.0,13.3,1505.3,324.3,-0.7,1.8,2470.401,13.32,0.056,298.4
2021-01-05T08:28:03,42.805,6.029,-0.063,-0.008,0.008,107.0,109.0,103.0,13.4,1505.3,327.8,-0.7,1.8,2470.424,13.32,0.063,262.8
2021-01-05T08:31:03,42.805,6.029,-0.085,0.023,-0.025,107.0,109.0,103.0,13.4,1505.3,323.0,-0.7,1.8,2470.414,13.32,0.088,285.1
2021-01-05T08:34:03,42.805,6.029,-0.08,0.006,-0.001,107.0,108.0,104.0,13.3,1505.3,322.8,-0.7,1.8,2470.456,13.32,0.08,274.3
2021-01-05T08:37:03,42.805,6.029,-0.07,-0.008,-0.016,106.0,109.0,104.0,13.4,1505.3,326.6,-0.7,1.8,2470.428,13.32,0.07,263.5
2021-01-05T08:40:03,42.805,6.029,-0.06,-0.003,-0.028,106.0,109.0,103.0,13.4,1505.3,327.0,-0.7,1.9,2470.419,13.32,0.06,267.1
2021-01-05T08:43:03,42.805,6.029,-0.08,0.019,0.022,104.0,108.0,104.0,13.3,1505.3,326.1,-0.7,1.8,2470.408,13.32,0.082,283.4
2021-01-05T08:46:03,42.805,6.029,-0.078,0.02,0.012,106.0,110.0,103.0,13.4,1505.3,324.2,-0.7,1.8,2470.426,13.32,0.08,284.4
2021-01-05T08:49:03,42.805,6.029,-0.079,0.009,-0.007,107.0,110.0,103.0,13.4,1505.3,325.6,-0.7,1.8,2470.454,13.32,0.079,276.5
2021-01-05T08:52:03,42.805,6.029,-0.068,0.04,-0.005,106.0,111.0,102.0,13.4,1505.3,325.2,-0.7,1.8,2470.409,13.32,0.078,300.5
2021-01-05T08:55:03,42.805,6.029,-0.062,0.051,0.022,107.0,109.0,103.0,13.4,1505.3,327.5,-0.7,1.8,2470.431,13.32,0.08,309.4
2021-01-05T08:58:03,42.805,6.029,-0.096,0.006,-0.019,106.0,109.0,103.0,13.4,1505.3,325.4,-0.7,1.8,2470.448,13.32,0.096,273.6
2021-01-05T09:04:03,42.805,6.029,-0.068,0.011,-0.021,106.0,110.0,104.0,13.4,1505.2,325.0,-0.7,1.8,2470.486,13.3,0.068,279.2
2021-01-05T09:07:03,42.805,6.029,-0.089,0.017,-0.025,106.0,110.0,104.0,13.4,1505.3,328.1,-0.7,1.8,2470.443,13.31,0.09,280.8
2021-01-05T09:10:03,42.805,6.029,-0.06,0.022,0.023,107.0,110.0,103.0,13.3,1505.3,327.1,-0.7,1.8,2470.469,13.32,0.063,290.1
2021-01-05T09:13:03,42.805,6.029,-0.057,0.001,-0.008,106.0,111.0,103.0,13.3,1505.3,323.8,-0.7,1.9,2470.5,13.32,0.057,271.0
2021-01-05T09:16:03,42.805,6.029,-0.022,0.003,0.046,107.0,112.0,102.0,13.3,1505.3,325.6,-0.7,1.8,2470.473,13.32,0.022,277.8
2021-01-05T09:19:03,42.805,6.029,-0.061,0.025,0.008,107.0,110.0,103.0,13.3,1505.3,326.0,-0.7,1.8,2470.466,13.32,0.065,292.3
2021-01-05T09:22:03,42.805,6.029,-0.057,0.007,-0.005,108.0,110.0,103.0,13.3,1505.3,326.0,-0.7,1.8,2470.522,13.32,0.057,277.0
2021-01-05T09:25:03,42.805,6.029,-0.054,0.026,0.049,107.0,111.0,103.0,13.4,1505.3,328.2,-0.7,1.8,2470.502,13.32,0.059,295.7
2021-01-05T09:28:03,42.805,6.029,-0.07,0.011,0.041,107.0,110.0,103.0,13.3,1505.3,327.2,-0.7,1.8,2470.498,13.32,0.07,278.9
2021-01-05T09:31:03,42.805,6.029,-0.052,0.005,0.023,106.0,110.0,102.0,13.4,1505.3,326.2,-0.7,1.8,2470.513,13.32,0.052,275.5
2021-01-05T09:34:03,42.805,6.029,-0.037,0.024,0.014,108.0,110.0,102.0,13.4,1505.3,326.8,-0.7,1.8,2470.474,13.32,0.044,303.0
2021-01-05T09:37:03,42.805,6.029,-0.042,0.021,0.001,106.0,111.0,103.0,13.4,1505.3,326.3,-0.7,1.8,2470.496,13.32,0.046,296.6
2021-01-05T09:40:03,42.805,6.029,-0.046,0.007,0.006,107.0,109.0,102.0,13.4,1505.3,324.0,-0.7,1.8,2470.488,13.32,0.046,278.7
2021-01-05T09:43:03,42.805,6.029,-0.064,0.005,0.038,106.0,109.0,102.0,13.4,1505.3,324.0,-0.7,1.8,2470.509,13.32,0.064,274.5
2021-01-05T09:46:03,42.805,6.029,-0.076,0.002,-0.014,107.0,109.0,103.0,13.4,1505.3,327.8,-0.7,1.8,2470.499,13.32,0.076,271.5
2021-01-05T09:49:03,42.805,6.029,-0.08,0.008,-0.001,106.0,110.0,103.0,13.3,1505.3,326.7,-0.7,1.8,2470.494,13.32,0.08,275.7
2021-01-05T09:52:03,42.805,6.029,-0.048,0.019,0.011,107.0,111.0,104.0,13.4,1505.3,325.8,-0.7,1.8,2470.479,13.32,0.051,291.6
2021-01-05T09:55:03,42.805,6.029,-0.087,0.023,-0.038,106.0,110.0,103.0,13.3,1505.3,327.1,-0.7,1.8,2470.508,13.32,0.089,284.8